447  
ASUS46 KOTX 091925  
RWROTX  
 
EASTERN WASHINGTON/NORTHERN IDAHO ROUNDUP  
NATIONAL WEATHER SERVICE, SPOKANE WA  
1100 AM PST FRI DEC 09 2022  
 
NOTE: "FAIR" INDICATED FEW OR NO CLOUDS BELOW 12,000 FEET WITH NO  
SIGNIFICANT WEATHER AND/OR S TO VISIBILITY
.  
   
..NORTHEAST WASHINGTON AND NORTHERN IDAHO PANHANDLE
 
 
 
CITY SKY/WX TMP DP RH WIND PRES REMARKS
 
SPOKANE INTL FOG 27 25 92 S10 29.94S VSB 1/2 WCI 17  
SPOKANE DOWNTO CLOUDY 30 26 85 S9 29.97S WCI 22  
COEUR D ALENE CLOUDY 32 28 86 W6 29.96S WCI 26  
DEER PARK CLOUDY 26 23 88 SW8 29.96S WCI 18  
SANDPOINT CLOUDY 32 28 86 SW6 29.95S WCI 26  
BONNERS FERRY FAIR 32 27 80 S9 29.89F WCI 24  
   
..SOUTHEAST WASHINGTON AND SOUTHERN IDAHO PANHANDLE
 
 
 
CITY SKY/WX TMP DP RH WIND PRES REMARKS
 
WALLA WALLA CLOUDY 39 29 67 SE3 29.98F  
PULLMAN/MOSCOW CLOUDY 31 25 78 E3 29.97F  
LEWISTON MOSUNNY 39 31 72 CALM 30.00F  
LOWELL N/A 32 29 88 CALM 30.05S  
GRANGEVILLE FAIR 34 23 64 SW14G20 29.95F WCI 24  
   
..COLUMBIA BASIN
 
 
 
CITY SKY/WX TMP DP RH WIND PRES REMARKS
 
EPHRATA FOG 23 20 88 N8 29.98F VSB 3/4 WCI 14  
MOSES LAKE FOG 25 23 92 N5 29.99F VSB 1/2 WCI 19  
PASCO FOG 27 24 89 NW6 30.03F VSB 1/4 WCI 20  
RICHLAND CLOUDY 28 26 92 NW5 30.03F FOG WCI 23  
HERMISTON PTSUNNY 30 27 88 CALM 30.00F  
PENDLETON PTSUNNY 36 30 79 SE6 29.97F  
   
..EAST SLOPES CASCADES
 
 
 
CITY SKY/WX TMP DP RH WIND PRES REMARKS
 
THE DALLES CLOUDY 34 30 85 CALM 30.00F  
YAKIMA PTSUNNY 22 17 81 W3 29.99F  
ELLENSBURG FOG 22 18 85 CALM 29.94S VSB 1/4  
STAMPEDE PASS CLOUDY 24 21 88 CALM 29.79  
WENATCHEE CLOUDY 18 15 88 E7 29.99S WCI 9  
WINTHROP CLOUDY 12 9 88 N5 29.98 WCI 4  
OMAK CLOUDY 24 20 84 S6 29.98S WCI 17  
SUNNYSIDE FOG 24 23 96 CALM 29.99 VSB 1  
   
..SOUTHERN BRITISH COLUMBIA
 
 
 
CITY SKY/WX TMP DP RH WIND PRES REMARKS
 
PENTICTON PTSUNNY 30 25 80 S14G22 29.93S WCI 20  
CASTLEGAR CLOUDY 32 30 93 SE5 29.92S WCI 27  
CRANBROOK MOSUNNY 27 25 93 VRB2 29.80F  
CRESTON N/A 32 27 80 S9 N/A WCI 24  
   
..WESTERN MONTANA
 
 
 
CITY SKY/WX TMP DP RH WIND PRES REMARKS
 
KALISPELL PTSUNNY 34 23 64 S13 29.85S WCI 25  
MISSOULA CLOUDY 25 18 74 SE3 29.93S  
   
..NEIGHBORING CITIES
 
 
 
CITY SKY/WX TMP DP RH WIND PRES REMARKS
 
SEATTLE CLOUDY 41 34 76 E7 29.86F  
PORTLAND LGT RAIN 41 36 82 E12 29.91F  
BOISE MOSUNNY 37 26 64 NE5 30.09S  
GREAT FALLS PTSUNNY 33 22 63 SW20 29.76F WCI 21  
CALGARY PTSUNNY 32 12 43 W8 29.63R WCI 25  
 
CLICK HERE TO GO TO PREVIOUS BULLETINS.

The Nexlab WA Page
The Nexlab ID Page Main Text Page